Tracking 21076 objects as of 10-Aug-2020
HD Live streaming from Space Station
objects crossing your sky now
Track the most recent launched group of Starlink satellites

TITAN 3C TRANSTAGE DEB

Track TITAN 3C TRANSTAGE DEB now!


NORAD ID: 34172
Int'l Code: 1965-108DF
Perigee: 864.6 km
Apogee: 30,439.3 km
Inclination: 26.4 °
Period: 542.1 minutes
Semi major axis: 22022 km
RCS: 0.0224 m2 (small)
Launch date: December 21, 1965
Source: United States (US)
Launch site: AIR FORCE EASTERN TEST RANGE (AFETR)

Note: This is SATELLITE DEBRIS
aabbcc
Your satellite tracking list
Your tracking list is empty




NASA's NSSDC Master Catalog

Two Line Element Set (TLE):
1 34172U 65108DF  20218.57114115 -.00000129  00000-0 -40113-3 0  9991
2 34172  26.4157 174.5641 6714518 188.3463 356.2790  2.65637379137750
Source of the keplerian elements: AFSPC